Find COSMIC 1-5

NORAD ID: 29049 Int'l Des: 2006-011 Owner: NSPO Country: TW operational
LEOCIRCULAR

現在のビュー

3D地球を読み込み中...

About COSMIC 1-5

COSMIC 1-5 (NORAD 29049) is a satellite launched Apr 15, 2006 by NSPO of TW. It operates in LEO, CIRCULAR orbit with a mass of 62.00 kg.

次回通過

Passes for default location (London). Set your location on the main map for personalized predictions.

高度履歴

Loading altitude history...

軌道要素

1 29049U 06011C 26194.84238741 .00000201 00000-0 90667-4 0 9996
2 29049 72.0195 349.3752 0033392 163.2418 196.9832 14.31423872 56484
Epoch: Jul 13, 2026 • Age: 13 hours

現在のステータス

高度 799.5 km
遠地点 / 近地点 N/A
速度 7.46 km/s
衛星直下点 -51.67°S, 124.36°E
打ち上げ日 Apr 15, 2006
運用期間 20.2 years
タイプ other

技術仕様

分類 Payload
質量 62.00 kg
乾燥質量 56.00 kg
総質量 62.00 kg
長さ 0.20 m
直径 1.00 m
スパン 4.30 m
形状 Cyl + 2 Pan
製造者 OSCD
バスタイプ Microstar
フェーズステータス In Orbit
所有者/国 NSPO/TW

Most Searched